COSMOS 886 DEB, 19475

Orbit data source: Space-Track

COSMOS 886 DEB, 19475 is space debris in LEO originally from a launch on Mon, 27 Dec 1976 UTC launched from the Tyuratam Missile And Space Complex (TTMTR). Debris objects in space refer to the collection of defunct objects orbiting the Earth. Examples of debris include non-operational satellites, rocket bodies, and fragments generated from explosions, collisions, or faulty payload assembly.

Loading next visibility...
Identifier
19475, 1976-126CD
Orbit
LEO
Country
Flag of CISCIS
Related business
Manufacturer
Unknown
Mission
Spacecraft
Bus & Motor
Unknown
Mass
Unknown
Launch date (UTC)
1976-12-27 (49 years ago)
Launch vehicle
Unknown
Launch site
Tyuratam Missile And Space Complex (TTMTR)
Object type
Payload
Rocket body
Debris
Shape & HBR
Unknown shape, 0.1 m
Radar Cross Section
Small (<0.1 m²)

Expand to show TLE details & history
Last TLE update: 1 day ago

TLE from 1 day ago
0 COSMOS 886 DEB
1 19475U 76126CD  26129.23050837  .00000712  00000-0  36194-3 0  9992
2 19475  65.8537  72.9448 0802809 239.3657 112.5865 13.18224322704487
Epoch: 2026-05-09T05:31Z
TLE epoch observation values (Epoch: 2026-05-09T05:31:55.923Z)
Latitude
0.00007°
Longitude
122.9109°
Altitude
1,466.47 km
Speed
7 km/s
True Right ascension
04h 51m 46s
True Declination
0° 00' 00"
Sunlit
Object was in daylight at epoch
Visualization orbit readout
Latitude
Unknown
Longitude
Unknown
Altitude
Unknown
Speed
Unknown
Apparent Right ascension
Unknown
Apparent Declination
Unknown
Sunlit
N/A
Visualization observer readout
Local Sidereal Time
22:01:26
Azimuth
Unknown
Elevation
Unknown
Doppler factor
Unknown
Orbital elements
Apogee altitude
1,797.633 km
Perigee altitude
582.471 km
Semi-major axis
7,568.189 km
Eccentricity
0.08028
Inclination
65.8537°
RAAN
72.9448°
Arg. of periapsis
239.3657°
True anomaly
120.73731°
Mean anomaly
112.5865°
Eccentric anomaly
116.69594°
Mean motion
3.29652 °/min
Orbital period
109.21 mins
BSTAR
0.00036194
Loading maneuver chart data...
Computing Atmospheric mass density...
Loading historical data...
Loading historical data...
Loading historical data...
Loading historical data...
Loading historical data...
Loading historical data...
Loading historical data...

Documentation

Showing up to 5 results
|